• In Latvia
  • List of Countries
  • For 7 days
  • Water Temperature
  • Satellite Maps
  • Weather Map
  • Weather Widgets
  • user-avatar
    Login

    Hourly Weather Pinsa

    Today, 19 June, Tuesday

    Time Temperature Precipitation Wind Pressure Humidity
    00:00 +37°C° 0 mm 4 mps 734 mmHg 36%
    01:00 +37°C° 0 mm 5 mps 733 mmHg 38%
    02:00 +36°C° 0 mm 5 mps 733 mmHg 39%
    03:00 +36°C° 0 mm 6 mps 733 mmHg 40%
    04:00 +35°C° 0 mm 6 mps 733 mmHg 44%
    05:00 +35°C° 0 mm 6 mps 733 mmHg 47%
    06:00 +34°C° 0 mm 7 mps 733 mmHg 51%
    07:00 +35°C° 0 mm 7 mps 733 mmHg 48%
    08:00 +35°C° 0 mm 7 mps 733 mmHg 46%
    09:00 +36°C° 0 mm 7 mps 734 mmHg 44%
    10:00 +38°C° 0 mm 7 mps 733 mmHg 40%
    11:00 +39°C° 0 mm 6 mps 733 mmHg 36%
    12:00 +41°C° 0 mm 6 mps 733 mmHg 32%
    13:00 +42°C° 0 mm 5 mps 732 mmHg 30%
    14:00 +42°C° 0 mm 4 mps 732 mmHg 28%
    15:00 +43°C° 0 mm 3 mps 731 mmHg 26%
    16:00 +43°C° 0 mm 3 mps 731 mmHg 26%
    17:00 +43°C° 0 mm 3 mps 731 mmHg 25%
    18:00 +43°C° 0 mm 3 mps 731 mmHg 24%
    19:00 +43°C° 0 mm 4 mps 731 mmHg 26%
    20:00 +42°C° 0 mm 5 mps 731 mmHg 28%
    21:00 +41°C° 0 mm 6 mps 732 mmHg 29%
    22:00 +41°C° 0 mm 7 mps 732 mmHg 31%
    23:00 +40°C° 0 mm 7 mps 731 mmHg 34%

    Tomorrow, 20 June, Wednesday

    Time Temperature Precipitation Wind Pressure Humidity
    00:00 +39°C° 0 mm 8 mps 731 mmHg 36%
    01:00 +39°C° 0 mm 8 mps 731 mmHg 38%
    02:00 +38°C° 0 mm 8 mps 731 mmHg 40%
    03:00 +37°C° 0 mm 9 mps 731 mmHg 42%
    04:00 +37°C° 0 mm 8 mps 731 mmHg 44%
    05:00 +35°C° 0 mm 8 mps 732 mmHg 46%
    06:00 +34°C° 0 mm 8 mps 732 mmHg 48%
    07:00 +35°C° 0 mm 8 mps 732 mmHg 48%
    08:00 +35°C° 0 mm 8 mps 733 mmHg 47%
    09:00 +37°C° 0 mm 9 mps 733 mmHg 47%
    10:00 +38°C° 0 mm 9 mps 733 mmHg 43%
    11:00 +39°C° 0 mm 9 mps 733 mmHg 39%
    12:00 +41°C° 0 mm 8 mps 733 mmHg 35%
    13:00 +43°C° 0 mm 8 mps 732 mmHg 33%
    14:00 +44°C° 0 mm 8 mps 732 mmHg 30%
    15:00 +44°C° 0 mm 7 mps 731 mmHg 28%
    16:00 +44°C° 0 mm 7 mps 731 mmHg 28%
    17:00 +44°C° 0 mm 6 mps 731 mmHg 29%
    18:00 +42°C° 0 mm 6 mps 731 mmHg 29%
    19:00 +42°C° 0 mm 6 mps 732 mmHg 30%
    20:00 +41°C° 0 mm 6 mps 732 mmHg 31%
    21:00 +41°C° 0 mm 6 mps 733 mmHg 32%
    22:00 +40°C° 0.1 mm 6 mps 733 mmHg 34%
    23:00 +40°C° 0.1 mm 7 mps 733 mmHg 36%

    Day after tomorrow, 21 June, Thursday

    Time Temperature Precipitation Wind Pressure Humidity
    00:00 +39°C° 0.1 mm 8 mps 733 mmHg 38%
    01:00 +38°C° 0 mm 8 mps 732 mmHg 42%
    02:00 +37°C° 0 mm 9 mps 732 mmHg 46%
    03:00 +34°C° 0 mm 9 mps 732 mmHg 50%
    04:00 +34°C° 0 mm 9 mps 732 mmHg 52%
    05:00 +33°C° 0 mm 9 mps 733 mmHg 55%
    06:00 +33°C° 0 mm 8 mps 733 mmHg 57%
    07:00 +33°C° 0 mm 8 mps 733 mmHg 54%
    08:00 +34°C° 0 mm 8 mps 734 mmHg 51%
    09:00 +35°C° 0 mm 9 mps 734 mmHg 48%
    10:00 +37°C° 0 mm 8 mps 734 mmHg 45%
    11:00 +38°C° 0 mm 8 mps 734 mmHg 42%
    12:00 +40°C° 0 mm 8 mps 734 mmHg 38%
    13:00 +40°C° 0 mm 8 mps 733 mmHg 37%
    14:00 +41°C° 0 mm 7 mps 733 mmHg 36%
    15:00 +41°C° 0 mm 7 mps 732 mmHg 34%
    16:00 +41°C° 0 mm 7 mps 732 mmHg 34%
    17:00 +41°C° 0 mm 7 mps 732 mmHg 34%
    18:00 +41°C° 0 mm 6 mps 732 mmHg 34%
    19:00 +40°C° 0 mm 6 mps 732 mmHg 36%
    20:00 +40°C° 0 mm 6 mps 733 mmHg 37%
    21:00 +39°C° 0 mm 6 mps 733 mmHg 39%
    22:00 +38°C° 0.1 mm 7 mps 733 mmHg 43%
    23:00 +37°C° 0.1 mm 8 mps 733 mmHg 47%

    22 June, Friday

    Time Temperature Precipitation Wind Pressure Humidity
    00:00 +34°C° 0.1 mm 9 mps 733 mmHg 51%
    01:00 +34°C° 0 mm 9 mps 733 mmHg 52%
    02:00 +33°C° 0 mm 8 mps 732 mmHg 54%
    03:00 +33°C° 0 mm 8 mps 732 mmHg 55%
    04:00 +32°C° 0 mm 8 mps 732 mmHg 58%
    05:00 +32°C° 0 mm 8 mps 732 mmHg 60%
    06:00 +31°C° 0 mm 8 mps 732 mmHg 63%
    07:00 +32°C° 0 mm 8 mps 733 mmHg 60%
    08:00 +32°C° 0 mm 8 mps 734 mmHg 57%
    09:00 +33°C° 0 mm 7 mps 734 mmHg 54%
    10:00 +34°C° 0.4 mm 7 mps 734 mmHg 53%
    11:00 +34°C° 0.4 mm 6 mps 734 mmHg 52%
    12:00 +34°C° 0.4 mm 6 mps 734 mmHg 51%
    13:00 +34°C° 1.3 mm 6 mps 734 mmHg 51%
    14:00 +34°C° 1.3 mm 7 mps 733 mmHg 51%
    15:00 +34°C° 1.3 mm 7 mps 733 mmHg 52%
    16:00 +34°C° 1.1 mm 7 mps 733 mmHg 53%
    17:00 +33°C° 1.1 mm 6 mps 733 mmHg 54%
    18:00 +33°C° 1.1 mm 5 mps 733 mmHg 55%
    19:00 +33°C° 0.6 mm 5 mps 733 mmHg 55%
    20:00 +32°C° 0.6 mm 5 mps 733 mmHg 56%
    21:00 +32°C° 0.6 mm 5 mps 734 mmHg 57%
    22:00 +32°C° 0.2 mm 5 mps 734 mmHg 57%
    23:00 +32°C° 0.2 mm 4 mps 734 mmHg 58%

    23 June, Saturday

    Time Temperature Precipitation Wind Pressure Humidity
    00:00 +32°C° 0.2 mm 4 mps 734 mmHg 58%
    01:00 +30°C° 0.8 mm 4 mps 733 mmHg 60%
    02:00 +30°C° 0.8 mm 4 mps 733 mmHg 62%
    03:00 +29°C° 0.8 mm 5 mps 733 mmHg 65%
    04:00 +29°C° 3.2 mm 5 mps 733 mmHg 67%
    05:00 +28°C° 3.2 mm 5 mps 733 mmHg 70%
    06:00 +28°C° 3.2 mm 5 mps 734 mmHg 72%
    07:00 +28°C° 1.7 mm 5 mps 734 mmHg 70%
    08:00 +29°C° 1.7 mm 5 mps 735 mmHg 68%
    09:00 +29°C° 1.7 mm 6 mps 735 mmHg 66%
    10:00 +30°C° 0.5 mm 6 mps 735 mmHg 62%
    11:00 +32°C° 0.5 mm 6 mps 735 mmHg 59%
    12:00 +33°C° 0.5 mm 6 mps 734 mmHg 56%
    13:00 +33°C° 0 mm 5 mps 734 mmHg 53%
    14:00 +34°C° 0 mm 5 mps 733 mmHg 50%
    15:00 +34°C° 0 mm 5 mps 732 mmHg 48%
    16:00 +34°C° 0 mm 4 mps 733 mmHg 48%
    17:00 +34°C° 0 mm 4 mps 733 mmHg 47%
    18:00 +34°C° 0 mm 4 mps 733 mmHg 47%
    19:00 +34°C° 0 mm 4 mps 734 mmHg 49%
    20:00 +33°C° 0 mm 4 mps 734 mmHg 50%
    21:00 +33°C° 0 mm 4 mps 735 mmHg 52%
    22:00 +33°C° 0 mm 4 mps 735 mmHg 54%
    23:00 +32°C° 0 mm 4 mps 734 mmHg 55%

    24 June, Sunday

    Time Temperature Precipitation Wind Pressure Humidity
    00:00 +32°C° 0 mm 4 mps 734 mmHg 57%
    01:00 +31°C° 0 mm 3 mps 734 mmHg 58%
    02:00 +30°C° 0 mm 3 mps 734 mmHg 59%
    03:00 +30°C° 0 mm 3 mps 733 mmHg 61%
    04:00 +30°C° 0 mm 3 mps 734 mmHg 62%
    05:00 +30°C° 0 mm 3 mps 734 mmHg 63%
    06:00 +29°C° 0 mm 3 mps 735 mmHg 65%
    07:00 +30°C° 0 mm 4 mps 735 mmHg 61%
    08:00 +32°C° 0 mm 4 mps 735 mmHg 57%
    09:00 +33°C° 0 mm 5 mps 736 mmHg 53%
    10:00 +34°C° 0 mm 4 mps 735 mmHg 49%
    11:00 +35°C° 0 mm 4 mps 735 mmHg 46%
    12:00 +36°C° 0 mm 3 mps 734 mmHg 42%
    13:00 +36°C° 0 mm 3 mps 734 mmHg 40%
    14:00 +37°C° 0 mm 2 mps 733 mmHg 38%
    15:00 +37°C° 0 mm 2 mps 732 mmHg 36%
    16:00 +38°C° 0 mm 2 mps 732 mmHg 36%
    17:00 +38°C° 0 mm 2 mps 732 mmHg 36%
    18:00 +38°C° 0 mm 2 mps 732 mmHg 36%
    19:00 +37°C° 2.1 mm 3 mps 733 mmHg 39%
    20:00 +36°C° 2.1 mm 3 mps 734 mmHg 42%
    21:00 +35°C° 2.1 mm 4 mps 734 mmHg 46%
    22:00 +34°C° 13.4 mm 4 mps 734 mmHg 50%
    23:00 +34°C° 13.4 mm 5 mps 734 mmHg 55%
    Show more